GSAT0219 (GALILEO 23) (43566 NORAD) Tracking and Keplerian Element Data

This shows tracking and keplerian element data for the satellite.

Feedback or suggestion? Click here.




ElementValue
Catalog43566
NameGSAT0219 (GALILEO 23)
Epoch Orbit2601
Epoch Day269.80113343
Epoch Year2022
RAAN18.4499
Inclination57.2108
Eccentricity0.0002203
Argument of Perigee251.1778
Mean Anonmoly108.8107
Mean Motion1.70476127
Decay Rate-7.5E-07
L11 43566U 18060C 22269.80113343 -.00000075 00000+0 00000+0 0 9994
L22 43566 57.2108 18.4499 0002203 251.1778 108.8107 1.70476127 26011

Live tracking and technical data element details for GSAT0219 (GALILEO 23) (NORAD 43566). GSAT0219 (GALILEO 23) can be tracked NOW for your location showing map with azimuth and elevation plus other details from your city location.

Track the satellite on the map from your city or location and see movement details for azimuth, elevation, latitude, longitude, range, height, and movement on the map or in text.







IsCatalogInMostPopularTable: catalog: 43566, numindb: 606
Update: records affected: 1



GetName: 43566 GSAT0219 (GALILEO 23)

Hit Count: updated at: Fri, 30 Sep 2022 02:39:51 GMT